sat.trackr.live / text

‹ back to catalog

STARLINK-6364

NORAD 57378 · 2023-099BC

PAYLOAD ACTIVE UNKNOWN

§ Identity

Operator
Country
US
Launch date
2023-07-16
Launch site
AFETR
Launch vehicle
Mass (kg)
RCS (m²)

Purposes: comms

External: N2YO · Heavens-Above · Gunter

§ Orbital elements

Epoch: 2026-05-25T00:56:15.616896Z

Period
94.27 min
Inclination
43.0023°
Eccentricity
0.0000736
Mean motion
15.27577286 rev/d
Perigee alt
482.6 km
Apogee alt
483.6 km
Semi-major
6,861.2 km
B*
1.8543e-5
RAAN
141.2802°
Arg perigee
266.7973°
Mean anomaly
93.2795°
Rev number
15,895

§ Raw data

STARLINK-63641 57378U 23099BC  26145.03906964  .00000248  00000+0  18543-4 0  99962 57378  43.0023 141.2802 0000736 266.7973  93.2795 15.27577286158951

JSON: /api/v1/satellites/57378 · /tle

For live sub-satellite position, see the globe view (requires WebGL).

§ Visibility from observer

Set your observer location to see the next 7 days of passes ≥ 10°. The values pass through the URL so the page stays shareable.

No JS? Fill the form by hand. The geolocation button needs JavaScript.